CAPE
12 4 13 12 1 5 0 0 0 17 13 18 29 94 105 37 54 9 0 0 0 0 0 0 0 0 0 0 0 0 0 0 0 0 0 0 0 0 0 0 0 0 0 0 0
6 3 0 0 0 9 0 0 0 12 21 35 43 142 49 48 9 0 0 4 1 0 0 0 0 0 0 0 0 0 0 0 0 0 0 0 0 0 0 0 0 0 0 0 0
0 4 3 16 18 2 12 0 0 15 30 46 64 38 16 24 0 0 0 6 21 0 0 0 0 0 0 0 0 0 0 0 0 0 0 0 0 0 0 0 0 0 0 0 0
0 0 9 10 17 11 1 1 0 0 24 56 67 63 23 18 0 0 12 48 82 0 0 0 0 0 0 0 0 0 0 0 0 0 0 0 0 0 0 0 0 0 0 0 0
0 0 0 6 2 0 11 18 9 5 10 7 28 17 8 0 0 0 334 256 89 0 0 0 0 0 0 0 0 0 0 0 0 0 0 0 0 0 0 0 0 0 0 0 0
0 0 0 0 0 0 3 10 4 26 65 64 54 1 0 0 0 0 25 17 1 0 0 0 0 0 0 0 0 0 0 0 0 0 0 0 0 0 0 0 0 0 0 0 0
0 0 0 0 0 0 5 17 14 12 0 0 0 0 0 0 0 0 0 0 0 0 0 0 0 0 0 0 0 0 0 0 0 0 0 0 0 0 0 0 0 0 0 0 0
0 0 0 0 0 0 0 2 0 0 0 0 2 0 3 0 0 0 0 0 0 0 0 0 0 0 0 0 0 0 0 0 0 0 0 0 0 0 0 0 0 0 0 0 0
0 0 0 0 0 0 0 0 0 2 0 0 0 0 0 0 0 0 0 0 0 0 0 0 0 0 0 0 0 0 0 0 0 0 0 0 0 0 0 0 0 0 0 0 0
0 0 0 0 0 0 0 0 3 3 3 8 0 0 0 0 0 0 0 0 0 0 0 0 0 0 0 0 0 0 0 0 0 0 0 0 0 0 0 0 0 0 0 0 0
0 0 0 0 0 0 0 0 0 0 0 0 0 0 0 0 0 0 0 0 0 0 0 0 0 0 0 0 0 0 0 0 0 0 0 0 0 0 0 0 0 0 0 0 0
0 0 0 0 0 0 0 0 0 0 0 0 0 0 0 0 0 0 0 0 0 0 0 0 0 0 0 0 0 0 0 0 0 0 0 0 0 0 0 0 0 0 0 0 0
0 0 0 0 0 0 0 0 0 0 0 0 0 0 0 0 0 0 0 0 0 0 0 0 0 0 0 0 0 0 0 0 0 0 0 0 0 0 0 0 0 0 0 0 0
0 0 0 0 0 0 0 0 0 0 0 0 0 0 0 0 0 0 0 0 0 0 0 0 0 0 0 0 0 0 0 0 0 0 0 0 0 0 0 0 0 0 0 0 0
0 0 0 0 0 0 0 0 0 0 0 0 0 0 0 0 0 0 0 0 0 0 0 0 0 0 0 0 0 0 0 0 0 0 0 0 0 0 0 0 0 0 0 0 0
0 0 0 0 0 0 0 0 0 0 0 0 0 0 0 0 0 0 0 0 0 0 0 0 0 0 0 0 0 0 0 0 0 0 0 0 0 0 0 0 0 0 0 0 0
0 0 0 0 0 0 0 0 0 0 0 0 0 0 0 0 0 0 0 0 0 0 0 0 0 0 0 0 0 0 0 0 0 0 0 0 0 0 0 0 0 0 0 0 0
0 0 0 0 0 0 0 0 0 0 0 0 0 0 0 0 0 0 0 0 0 0 0 0 0 0 0 0 0 0 0 0 0 0 0 0 0 0 0 0 0 0 0 0 0
0 0 0 0 0 0 0 0 0 0 0 0 0 0 0 0 0 0 0 0 0 0 0 0 0 0 0 0 0 0 0 0 0 0 0 0 0 0 0 0 0 0 0 0 0
0 0 0 0 0 0 0 0 0 0 0 0 0 0 0 0 0 0 0 0 0 0 0 0 0 0 0 0 0 0 0 0 0 0 0 0 0 0 0 0 0 0 0 0 0
0 0 0 0 0 0 0 0 0 0 0 0 0 0 0 0 0 0 0 0 0 0 0 0 0 0 0 0 0 0 0 0 0 0 0 0 0 0 0 0 0 0 0 0 0
0 0 0 0 0 0 0 0 0 0 0 0 0 0 0 0 0 0 0 0 0 0 0 0 0 0 0 0 0 0 0 0 0 0 0 0 0 0 0 0 0 0 0 0 0
0 0 0 0 0 0 0 0 0 0 0 0 0 0 0 0 0 0 0 0 0 0 0 0 0 0 0 0 0 0 0 0 0 0 0 0 0 0 0 0 0 0 0 0 0
0 0 0 0 0 0 0 0 0 0 0 0 0 0 0 0 0 0 0 0 0 0 0 0 0 0 0 0 0 0 0 0 0 0 0 0 0 0 0 0 0 0 0 0 0
0 0 0 0 0 0 0 0 0 0 0 0 0 0 0 0 0 0 0 0 0 0 0 0 0 0 0 0 0 0 0 0 0 0 0 0 0 0 0 0 0 0 0 0 0
0 0 0 0 0 0 0 0 0 0 0 0 0 0 0 0 0 0 0 0 0 0 0 0 0 0 0 0 0 0 0 0 0 0 0 0 0 0 0 0 0 0 0 0 0
0 0 0 0 0 0 0 0 0 0 0 0 0 0 0 0 0 0 0 0 0 0 0 0 0 0 0 0 0 0 0 0 0 0 0 0 0 0 0 0 0 0 0 0 0
CIN
0 0 0 -18 -5 -25 0 0 -21 -88 -7 -15 -29 -29 -11 -6 -4 -1 0 0 0 0 0 0 0 0 0 0 0 0 0 0 0 0 0 0 0 0 0 0 0 0 0 0 0
0 0 0 0 0 -13 0 0 0 -18 -14 -9 -21 -10 -40 -8 -5 0 0 -29 -12 0 0 0 0 0 0 0 0 0 0 0 0 0 0 0 0 0 0 0 0 0 0 0 0
0 -5 -2 -12 -13 -3 -14 0 0 -18 -23 -16 -6 -10 -18 -7 0 0 0 -62 -22 0 0 0 0 0 0 0 0 0 0 0 0 0 0 0 0 0 0 0 0 0 0 0 0
0 0 -31 -7 -17 -18 -3 -3 0 0 -17 -14 -8 -11 -15 -7 0 0 -57 -46 -12 0 0 0 0 0 0 0 0 0 0 0 0 0 0 0 0 0 0 0 0 0 0 0 0
0 0 0 -18 -20 0 -16 -8 -14 -11 -25 -31 -21 -16 -3 0 0 0 -21 -28 -8 0 0 0 0 0 0 0 0 0 0 0 0 0 0 0 0 0 0 0 0 0 0 0 0
0 0 0 0 0 0 -24 -7 -11 -8 -2 -11 -18 -12 0 0 0 0 -45 -19 -13 0 0 0 0 0 0 0 0 0 0 0 0 0 0 0 0 0 0 0 0 0 0 0 0
0 0 0 0 0 0 -28 -24 -23 -13 0 0 0 0 0 0 0 0 0 0 0 0 0 0 0 0 0 0 0 0 0 0 0 0 0 0 0 0 0 0 0 0 0 0 0
0 0 0 0 0 0 0 -43 -3 0 0 0 -29 0 -28 0 0 0 0 0 0 0 0 0 0 0 0 0 0 0 0 0 0 0 0 0 0 0 0 0 0 0 0 0 0
0 0 0 0 0 0 0 0 0 -72 0 0 0 0 0 0 0 0 0 0 0 0 0 0 0 0 0 0 0 0 0 0 0 0 0 0 0 0 0 0 0 0 0 0 0
0 0 0 0 0 0 0 0 -82 -30 -17 -63 0 0 0 0 0 0 0 0 0 0 0 0 0 0 0 0 0 0 0 0 0 0 0 0 0 0 0 0 0 0 0 0 0
0 0 0 0 0 0 0 0 0 0 0 0 0 0 0 0 0 0 0 0 0 0 0 0 0 0 0 0 0 0 0 0 0 0 0 0 0 0 0 0 0 0 0 0 0
0 0 0 0 0 0 0 0 0 0 0 -4 0 0 0 0 0 0 0 0 0 0 0 0 0 0 0 0 0 0 0 0 0 0 0 0 0 0 0 0 0 0 0 0 0
0 0 0 0 0 0 0 0 0 0 0 0 0 0 0 0 0 0 0 0 0 0 0 0 0 0 0 0 0 0 0 0 0 0 0 0 0 0 0 0 0 0 0 0 0
0 0 0 0 0 0 0 0 0 0 0 0 0 0 0 0 0 0 0 0 0 0 0 0 0 0 0 0 0 0 0 0 0 0 0 0 0 0 0 0 0 0 0 0 0
0 0 0 0 0 0 0 0 0 0 0 0 0 0 0 0 0 0 0 0 0 0 0 0 0 0 0 0 0 0 0 0 0 0 0 0 0 0 0 0 0 0 0 0 0
0 0 0 0 0 0 0 0 0 0 0 0 0 0 0 0 0 0 0 0 0 0 0 0 0 0 0 0 0 0 0 0 0 0 0 0 0 0 0 0 0 0 0 0 0
0 0 0 0 0 0 0 0 0 0 0 0 0 0 0 0 0 0 0 0 0 0 0 0 0 0 0 0 0 0 0 0 0 0 0 0 0 0 0 0 0 0 0 0 0
0 0 0 0 0 0 0 0 0 0 0 0 0 0 0 0 0 0 0 0 0 0 0 0 0 0 0 0 0 0 0 0 0 0 0 0 0 0 0 0 0 0 0 0 0
0 0 0 0 0 0 0 0 0 0 0 0 0 0 0 0 0 0 0 0 0 0 0 0 0 0 0 0 0 0 0 0 0 0 0 0 0 0 0 0 0 0 0 0 0
0 0 0 0 0 0 0 0 0 0 0 0 0 0 0 0 0 0 0 0 0 0 0 0 0 0 0 0 0 0 0 0 0 0 0 0 0 0 0 0 0 0 0 0 0
0 0 0 0 0 0 0 0 0 0 0 0 0 0 0 0 0 0 0 0 0 0 0 0 0 0 0 0 0 0 0 0 0 0 0 0 0 0 0 0 0 0 0 0 0
0 0 0 0 0 0 0 0 0 0 0 0 0 0 0 0 0 0 0 0 0 0 0 0 0 0 0 0 0 0 0 0 0 0 0 0 0 0 0 0 0 0 0 0 0
0 0 0 0 0 0 0 0 0 0 0 0 0 0 0 0 0 0 0 0 0 0 0 0 0 0 0 0 0 0 0 0 0 0 0 0 0 0 0 0 0 0 0 0 0
0 0 0 0 0 0 0 0 0 0 0 0 0 0 0 0 0 0 0 0 0 0 0 0 0 0 0 0 0 0 0 0 0 0 0 0 0 0 0 0 0 0 0 0 0
0 0 0 0 0 0 0 0 0 0 0 0 0 0 0 0 0 0 0 0 0 0 0 0 0 0 0 0 0 0 0 0 0 0 0 0 0 0 0 0 0 0 0 0 0
0 0 0 0 0 0 0 0 0 0 0 0 0 0 0 0 0 0 0 0 0 0 0 0 0 0 0 0 0 0 0 0 0 0 0 0 0 0 0 0 0 0 0 0 0
0 0 0 0 0 0 0 0 0 0 0 0 0 0 0 0 0 0 0 0 0 0 0 0 0 0 0 0 0 0 0 0 0 0 0 0 0 0 0 0 0 0 0 0 0
Wind_Speed
30 32 23 17 15 20 21 21 18 17 17 18 20 20 20 20 19 28 36 28 26 25 25 26 25 25 23 25 22 19 27 28 22 19 19 12 12 12 12 9 11 12 10 12 12
33 32 27 21 16 12 20 16 17 17 17 18 20 21 19 17 22 33 28 27 27 26 25 27 28 26 28 27 25 26 30 28 21 20 19 14 12 8 11 9 11 11 12 10 11
32 32 26 23 19 18 17 15 17 17 17 18 19 16 15 13 23 30 29 30 25 23 23 24 25 27 30 27 27 27 30 24 21 20 17 14 11 13 10 11 10 8 6 8 8
30 30 28 25 24 22 20 16 14 14 14 14 13 12 11 15 26 20 19 25 25 21 24 25 27 30 31 31 27 29 26 22 20 19 16 14 12 15 13 15 13 8 5 7 6
26 29 30 29 25 24 21 17 16 15 12 11 11 8 9 19 22 19 18 17 21 23 26 27 29 29 32 29 27 29 25 21 19 17 16 15 15 17 17 16 13 4 3 4 4
22 22 26 25 26 27 29 17 16 14 11 9 7 7 13 21 19 16 13 14 20 24 26 26 27 25 28 29 29 26 23 21 20 18 18 18 18 18 18 14 9 3 2 3 3
17 18 17 20 20 25 31 27 17 15 12 12 11 13 16 20 16 15 16 20 21 23 26 25 22 24 25 27 24 20 24 23 22 20 19 18 24 20 17 10 7 4 5 5 4
14 15 14 14 15 18 25 28 24 18 15 13 13 12 19 18 18 18 17 19 20 21 22 23 24 25 24 22 23 24 24 28 23 20 19 17 26 20 12 5 5 6 7 7 7
13 13 13 13 15 13 14 16 18 14 12 14 13 13 18 17 20 17 16 19 19 20 21 21 21 24 23 26 27 26 31 29 24 21 19 18 23 20 12 8 7 8 8 8 10
13 12 13 14 15 15 14 14 13 12 15 11 16 15 15 17 17 15 15 17 17 19 21 21 24 26 25 28 36 30 26 27 27 22 21 22 26 21 15 9 8 10 9 9 11
11 12 13 14 16 17 20 19 18 21 15 15 16 15 13 14 14 14 16 19 17 20 27 24 28 30 26 23 23 24 24 24 25 21 23 26 28 27 19 13 10 10 7 7 9
10 11 12 13 15 16 18 20 19 18 15 8 16 14 16 15 14 14 15 18 19 24 23 25 28 23 21 22 21 23 26 26 22 21 21 24 31 29 21 15 11 8 6 6 7
10 10 11 13 16 17 16 16 16 17 18 20 19 16 16 15 15 16 20 20 19 21 23 27 24 22 22 22 23 22 25 25 23 19 21 25 30 26 20 18 18 14 8 7 4
12 11 12 15 14 15 14 14 14 14 21 17 19 16 15 16 14 17 19 21 18 21 18 20 22 22 21 22 21 24 20 21 19 18 25 20 29 23 19 20 17 15 8 5 5
16 13 12 14 15 14 14 14 15 17 23 13 15 16 15 15 19 16 17 18 20 19 18 20 21 22 22 21 19 20 16 17 17 20 22 22 25 23 20 19 16 13 10 5 4
18 17 16 15 15 14 14 16 17 21 24 17 15 17 15 15 16 15 16 13 16 16 12 16 16 18 19 18 17 14 14 15 17 19 28 23 23 24 19 19 18 12 9 5 5
16 19 18 16 17 16 17 18 20 23 17 18 17 15 16 15 15 15 15 16 16 17 18 17 17 17 17 18 18 17 16 22 25 25 28 19 23 24 19 17 17 11 6 5 9
16 18 19 18 16 17 18 20 27 21 21 20 19 18 21 19 14 15 17 17 14 15 16 18 21 19 18 18 19 18 18 21 26 26 25 19 25 20 17 17 18 17 9 10 11
17 19 20 19 17 16 17 23 23 22 20 19 19 20 20 20 19 15 18 20 19 17 16 17 18 19 17 18 18 18 20 16 20 21 26 22 23 23 17 17 18 17 13 12 13
19 19 20 16 18 16 19 22 21 20 19 18 19 18 21 21 21 21 20 18 19 18 17 17 15 19 18 18 18 17 13 19 20 26 28 25 25 22 19 15 18 17 13 13 15
19 20 18 16 17 19 20 21 21 18 17 17 18 19 19 20 19 21 22 19 19 20 18 18 16 17 19 20 18 18 18 17 17 20 25 28 25 18 23 19 18 16 15 15 17
19 20 17 18 19 17 20 17 15 16 14 16 17 17 19 18 19 19 20 19 18 20 21 19 16 15 18 19 20 21 19 16 22 24 22 24 29 24 22 20 16 15 15 17 18
22 19 18 19 19 19 16 17 16 15 14 15 15 16 16 18 18 19 19 18 17 20 21 21 21 17 18 22 24 24 24 22 20 22 22 26 27 21 18 17 15 13 15 17 18
24 23 23 23 21 19 18 16 15 14 14 14 15 15 16 17 16 19 19 19 18 18 18 19 23 25 22 21 19 22 21 15 18 23 25 22 29 22 18 16 15 15 16 18 20
25 23 22 23 22 20 18 15 15 14 13 14 14 15 15 15 16 16 18 18 19 20 20 21 24 25 28 28 22 23 20 10 9 15 16 29 23 26 17 16 15 16 17 19 22
24 23 23 21 20 20 19 17 16 15 14 13 13 12 13 12 14 13 16 15 15 15 10 16 16 21 27 22 21 32 9 11 12 17 20 27 30 25 20 16 16 17 18 21 24
21 20 22 23 22 21 19 18 16 16 16 16 13 13 11 11 15 17 17 16 18 12 9 13 13 17 19 22 26 26 14 11 18 20 20 24 25 23 22 19 18 19 20 21 22
Wind_Direction
27 21 36 35 22 326 304 291 297 293 290 286 281 277 276 274 267 253 246 251 252 258 256 250 247 244 246 245 250 254 251 251 259 266 273 275 285 293 311 333 330 339 15 23 99
15 26 42 49 57 349 307 315 303 299 296 290 280 274 274 275 266 251 252 254 252 255 248 241 237 237 238 241 245 245 247 253 266 268 273 273 281 288 303 316 323 337 348 50 97
28 30 46 52 63 61 31 344 312 301 297 289 278 274 271 274 266 259 251 249 251 248 247 242 239 235 234 238 240 244 247 257 265 273 274 272 282 290 301 303 312 335 22 78 94
38 39 43 53 53 50 35 17 354 329 311 294 285 276 270 269 255 272 259 247 244 245 241 237 234 229 232 233 239 242 250 254 264 272 268 267 279 286 290 302 311 334 64 86 94
48 34 29 38 53 40 28 17 356 329 328 299 281 279 269 261 262 279 267 243 239 239 235 232 228 229 231 234 236 243 246 254 263 270 269 272 279 283 288 299 311 357 37 77 73
54 56 38 55 52 50 34 17 355 359 344 337 305 274 269 256 267 278 267 244 240 235 233 230 230 235 235 234 233 241 247 251 260 265 268 269 277 285 290 301 317 353 11 24 20
63 65 76 66 69 61 52 53 45 22 351 339 296 269 264 255 268 271 260 246 242 236 228 229 234 234 237 233 237 240 243 250 256 261 268 275 272 281 293 299 309 321 333 337 341
71 75 84 85 85 77 63 64 43 38 346 300 293 272 257 259 261 261 255 243 241 236 230 232 236 238 237 236 235 240 244 242 252 258 269 271 270 286 293 284 296 312 322 327 331
80 85 93 91 88 98 92 85 77 104 223 314 284 268 255 258 246 254 249 237 232 228 228 235 232 233 235 227 229 238 239 242 253 259 268 269 278 290 298 287 296 311 320 323 322
88 100 100 98 94 93 95 93 92 125 210 237 245 256 256 241 242 242 239 229 226 218 217 225 227 228 229 226 226 233 242 245 250 260 264 269 271 292 298 298 302 312 317 318 316
104 105 112 105 97 93 88 87 94 103 147 176 203 227 241 239 237 238 232 219 220 216 212 222 220 222 226 232 237 239 243 250 255 266 265 268 273 279 294 298 296 305 310 309 312
118 119 117 117 101 99 95 89 91 120 127 192 178 200 217 224 225 230 217 217 214 207 214 216 218 227 231 234 241 243 244 251 264 265 270 275 273 280 289 290 286 278 293 299 310
111 128 126 113 96 96 102 101 109 115 125 121 148 175 197 211 212 208 208 208 210 211 216 214 223 232 232 235 240 249 249 251 261 267 275 281 279 284 292 296 300 303 292 297 287
96 115 117 104 103 104 102 115 117 131 111 127 142 169 188 193 207 212 209 201 210 208 215 223 231 230 232 237 243 247 258 257 260 265 267 286 276 289 295 295 302 307 300 285 293
84 91 121 124 103 105 109 127 125 124 102 144 158 174 184 206 192 207 209 209 206 210 225 226 228 228 234 239 246 252 262 259 264 270 277 281 284 292 298 298 301 312 318 310 303
79 79 101 112 111 121 123 124 121 105 104 140 168 171 191 192 197 206 212 218 208 213 234 230 239 239 241 244 248 253 262 269 274 277 271 280 283 293 300 305 310 313 316 317 320
87 75 92 109 103 120 115 112 101 100 123 130 149 173 182 197 201 208 215 212 218 217 225 231 236 242 246 242 248 255 258 259 263 266 271 293 287 287 308 316 319 322 323 327 319
96 82 84 97 120 120 114 100 88 107 118 123 139 154 156 183 215 215 211 217 235 233 226 229 231 238 248 248 250 253 260 261 263 269 279 293 287 303 316 310 313 319 323 323 320
96 85 81 88 103 115 108 92 102 110 123 125 134 139 149 160 177 214 211 215 223 235 239 237 242 242 251 251 254 258 261 275 279 288 285 291 298 304 311 313 315 320 317 317 322
79 81 76 95 91 106 101 98 109 122 127 128 126 138 144 157 161 175 199 217 217 225 235 240 248 244 248 252 260 267 272 273 281 279 282 291 297 299 318 318 316 317 317 318 325
73 76 74 97 100 92 99 107 114 127 129 130 132 138 146 156 167 168 175 199 212 216 228 233 252 253 249 256 262 267 273 283 291 289 289 292 297 313 309 311 314 321 325 325 326
69 69 76 89 84 103 102 114 129 128 140 136 139 145 146 156 160 176 183 196 222 215 216 228 251 265 261 261 266 272 279 284 283 287 293 298 297 308 312 316 323 327 330 332 334
32 57 70 71 78 89 108 113 119 120 127 136 144 155 158 155 156 162 175 206 230 224 222 230 227 264 269 258 258 266 271 278 289 295 296 297 303 319 324 326 330 332 332 335 337
16 13 5 19 52 71 85 96 110 136 127 135 136 151 153 155 169 157 169 193 230 237 255 255 236 232 254 267 277 277 284 291 290 296 297 296 302 312 316 318 322 325 329 332 332
8 2 9 359 5 25 48 74 80 95 130 143 124 140 151 154 156 157 166 174 199 232 244 254 224 242 248 262 295 295 301 300 261 296 298 306 308 311 307 308 314 320 323 325 327
4 4 357 356 352 353 3 17 21 35 49 63 77 96 122 108 150 135 156 156 159 158 128 314 256 296 278 301 305 283 294 291 281 295 294 301 304 312 317 312 310 311 316 319 323
6 10 2 348 344 344 344 349 355 356 351 350 6 15 28 28 335 311 306 317 297 341 355 331 333 323 316 312 307 307 304 284 302 302 300 300 309 312 310 304 305 309 314 317 321